Regional Weather Roundup
Issued by NWS

Home | Current Version | Previous Version | Graphics & Text | Print | Product List | Glossary On
Versions: 1 2 3 4 5 6 7 8 9 10 11 12 13 14 15 16 17 18 19 20 21 22 23 24 25 26 27 28 29 30 31 32 33 34 35 36 37 38 39 40 41 42 43 44 45 46 47 48 49 50
000
ASUS43 KLOT 031508
RWRIL

ILLINOIS REGIONAL WEATHER ROUNDUP
NATIONAL WEATHER SERVICE CHICAGO/ROMEOVILLE IL
1000 AM CDT SUN MAY 03 2015

NOTE: "FAIR" INDICATES FEW OR NO CLOUDS BELOW 12,000 FEET WITH NO
SIGNIFICANT WEATHER AND/OR OBSTRUCTIONS TO VISIBILITY.

* THESE STATIONS ARE NOT UNDER NWS QUALITY CONTROL. THEY ALSO MAY NOT
  REPORT WEATHER SUCH AS PRECIPITATION OR FOG.

ILZ001-002-007-009-015-016-024-031600-
NORTHWEST ILLINOIS

CITY           SKY/WX    TMP DP  RH WIND       PRES   REMARKS
MOLINE         PTSUNNY   67  53  61 S12       29.91F
STERLING*      CLOUDY    57  52  82 S6        29.96S
SAVANNA*       CLOUDY    61  51  69 S16G24    29.91F
$$

ILZ003-004-008-010-011-017-018-031600-
NORTH CENTRAL ILLINOIS

CITY           SKY/WX    TMP DP  RH WIND       PRES   REMARKS
ROCKFORD       CLOUDY    72  49  44 S16G23    29.95F
FREEPORT*      CLOUDY    65  50  58 SW17G23   29.94S
ROCHELLE*      PTSUNNY   71  50  47 S18       29.96S
DE KALB*       PTSUNNY   67  48  50 S15       29.97F
PERU*          LGT RAIN  64  47  55 S7        29.98S
$$

ILZ005-006-012>014-019>023-031600-
NORTHEAST ILLINOIS

CITY           SKY/WX    TMP DP  RH WIND       PRES   REMARKS
CHICAGO-OHARE  PTSUNNY   69  46  43 SW12      29.97S
CHICAGO-MIDWAY CLOUDY    71  46  40 S14       29.98S
AURORA         PTSUNNY   70  46  42 S16G22    29.97F
LANSING*       PTSUNNY   71  42  35 SW14      30.00R
JOLIET*        PTSUNNY   70  49  48 S9        29.99S
WAUKEGAN       PTSUNNY   71  46  40 S13       29.94F
DUPAGE AIRPORT PTSUNNY   68  48  48 S12       29.97S
KANKAKEE*      CLOUDY    69  47  46 SW12G17   30.02S
WHEELING       PTSUNNY   70  45  40 S12       29.98S
MORRIS*        PTSUNNY   71  46  40 SW15      29.96F
ROMEOVILLE*    PTSUNNY   68  45  42 SW12      29.99S
NORTHERLY ISL    N/A     69  42  37 W8          N/A
$$

LMZ740>746-031600-
SOUTHERN LAKE MICHIGAN

STATION/POSITION SKY/WX   TEMP    WIND        PRES    VSBY  WAVE
                          AIR SEA DIR/SP/G                  HT/PER
                          (F)     (DEG/KT/KT) (MB)    (MI)  (FT/S)
HARRISON CRIB              63     180/ 16/ 17   N/A
BURNHAM HARBOR             69     210/  7/ 13   N/A
CALUMET HARBOR             68     180/  8/ 16   N/A
BURNS HARBOR               67     180/ 12/ 17 1016.3F
MICHIGAN CITY              66     160/ 10/ 12   N/A
MICHIGAN CITY 6N           60 50  210/  8/ 10   N/A           1
ST. JOSEPH                 58 49  210/  8/  8   N/A           1
$$

ILZ025>027-034>036-040-047-049-050-058-095>099-031600-
WEST-CENTRAL ILLINOIS

CITY           SKY/WX    TMP DP  RH WIND       PRES   REMARKS
QUINCY         PTSUNNY   70  52  52 S12       29.95F
GALESBURG*     MOSUNNY   69  52  55 S13       29.95S
MACOMB*        PTSUNNY   71  50  47 S12       29.97F
JACKSONVILLE*  SUNNY     75  50  42 S9        29.99F
PITTSFIELD*    MOSUNNY   72  52  49 SW10      29.99F
$$

ILZ028>032-037-038-041>044-048-051>054-059>061-031600-
CENTRAL ILLINOIS

CITY           SKY/WX    TMP DP  RH WIND       PRES   REMARKS
PONTIAC        CLOUDY    71  48  44 S12       30.00S
BLOOMINGTON    MOSUNNY   73  50  44 S17       30.01F
DECATUR        MOSUNNY   73  47  39 SW14      30.03F
PEORIA         MOSUNNY   72  49  44 S13       29.98F
LACON*         CLOUDY    67  47  49 S8        29.96F
LINCOLN*       MOSUNNY   74  47  39 S9        29.99S
SPRINGFIELD    MOSUNNY   74  49  41 S13       30.00F
TAYLORVILLE    SUNNY     73  46  38 S15       30.02F
$$

ILZ033-039-045-046-055>057-062-063-031600-
EAST-CENTRAL ILLINOIS

CITY           SKY/WX    TMP DP  RH WIND       PRES   REMARKS
CHAMPAIGN      MOSUNNY   75  41  29 S21       30.03F
DANVILLE*      MOSUNNY   73  48  41 SW12      30.02F
RANTOUL*       PTSUNNY   76  43  30 SW17      30.03S
MATTOON        MOSUNNY   71  46  40 SW12      30.06R
PARIS*         MOSUNNY   72  49  43 S15       30.07S
$$

ILZ079-100>102-031600-
SOUTHWEST ILLINOIS

CITY           SKY/WX    TMP DP  RH WIND       PRES   REMARKS
ALTON          MOSUNNY   72 N/A N/A SW12      30.03F
BELLEVILLE     SUNNY     73  50  44 VRB5      30.04S
CAHOKIA*       MOSUNNY   73  49  42 S10       30.03F
SPARTA*        MOSUNNY   69  48  47 S12       30.07S
$$

ILZ064>066-069>071-074>076-080>082-084>086-088>090-092>094-031600-
SOUTH-CENTRAL ILLINOIS

CITY           SKY/WX    TMP DP  RH WIND       PRES   REMARKS
CARBONDALE     PTSUNNY   71  49  45 SW10      30.09R
CAIRO*         MOSUNNY   72  49  44 SW8       30.10S
EFFINGHAM*     SUNNY     71  43  36 S8        30.08S
MARION         MOSUNNY   72  50  46 S6        30.10
MT. VERNON     SUNNY     72  50  46 S14       30.09S
CENTRALIA*     SUNNY     77  44  30 S14       30.07S
SALEM*         SUNNY     74  44  33 S13       30.07S
METROPOLIS*    SUNNY     72  52  48 S5        30.10S
$$

ILZ067-068-072-073-078-083-087-091-031600-
SOUTHEAST ILLINOIS

CITY           SKY/WX    TMP DP  RH WIND       PRES   REMARKS
LAWRENCEVILLE  FAIR      74  49  41 S14       30.09S
FLORA*         FAIR      71  47  41 S9        30.08S
FAIRFIELD*     SUNNY     72  47  41 S9        30.08S
HARRISBURG*    SUNNY     72  47  41 SW8       30.11R
ROBINSON*      SUNNY     73  47  40 S10       30.09S
CARMI*         SUNNY     72  45  37 S9        30.09S
$$

ABBREVIATIONS USED IN REMARKS
   TC - TEMPERATURE IN CELSIUS
  WCI - WIND CHILL INDEX
   HX - HEAT INDEX
  VSB - VISIBILITY
$$




USA.gov is the U.S. government's official web portal to all federal, state and local government web resources and services.